Bad Axe, MI

3:35 AM EDT on June 28, 2017 (GMT -0400)
Huron County Memorial

Weather History for KBAX - September, 2012

Change the Weather History Date:

Friday, September 28, 2012

  Actual Average (KP58) Record (KP58)
Temperature  
Mean Temperature 50 °F -  
Max Temperature 64 °F 65 °F 79 °F (1997)
Min Temperature 35 °F 48 °F 42 °F (2012)
Degree Days  
Heating Degree Days 16    
Moisture  
Dew Point 42 °F    
Average Humidity 81    
Maximum Humidity 100    
Minimum Humidity 44    
Precipitation  
Precipitation 0.00 in - - ()
Sea Level Pressure  
Sea Level Pressure 30.14 in    
Wind  
Wind Speed 1 mph (NW)    
Max Wind Speed 9 mph    
Max Gust Speed -    
Visibility 8 miles    
Events      
Averages and records for this station are not official NWS values.
T = Trace of Precipitation, MM = Missing Value Source: NWS Daily Summary

Daily Weather History Graph

Daily Weather History Graph

Search for Another Location

Airport or City:

Trip Planner

Search our weather history database for the weather conditions in past years. The results will help you decide how hot, cold, wet, or windy it might be!

Date:

Astronomy

Sep. 28, 2012 Rise Set
Actual Time 7:26 AM EDT 7:17 PM EDT
Civil Twilight 6:57 AM EDT 7:46 PM EDT
Nautical Twilight 6:24 AM EDT 8:19 PM EDT
Astronomical Twilight 5:50 AM EDT 8:53 PM EDT
Moon 6:19 PM EDT 5:54 AM EDT
Length of Visible Light 12h 48m
Length of Day
11h 50m
Waxing Gibbous, 98% of the Moon is Illuminated
Sep 28
Waxing Gibbous
Sep 29
Full
Oct 8
Last Quarter
Oct 15
New
Oct 21
First Quarter

Hourly Weather History & Observations

Time (EDT) Temp. Dew Point Humidity Pressure Visibility Wind Dir Wind Speed Gust Speed Precip Events Conditions
12:14 AM 39.2 °F 38.3 °F 97% 30.19 in 10.0 mi Calm Calm - N/A   Clear
12:34 AM 37.0 °F 36.1 °F 97% 30.19 in 3.0 mi Calm Calm - N/A   Scattered Clouds
12:54 AM 37.2 °F 36.5 °F 97% 30.18 in 0.8 mi Calm Calm - N/A   Mostly Cloudy
1:14 AM 36.3 °F 35.8 °F 98% 30.17 in 10.0 mi Calm Calm - N/A   Clear
1:34 AM 37.4 °F 36.7 °F 97% 30.17 in 10.0 mi Calm Calm - N/A   Scattered Clouds
1:54 AM 36.1 °F 35.2 °F 97% 30.18 in 7.0 mi Calm Calm - N/A   Scattered Clouds
2:14 AM 36.7 °F 36.0 °F 97% 30.18 in 1.0 mi Calm Calm - N/A   Mostly Cloudy
2:34 AM 35.6 °F 34.9 °F 97% 30.18 in 0.8 mi Calm Calm - N/A   Overcast
2:54 AM 36.7 °F 36.0 °F 97% 30.18 in 1.8 mi Calm Calm - N/A   Mostly Cloudy
3:14 AM 36.5 °F 36.1 °F 99% 30.18 in 0.8 mi Calm Calm - N/A   Overcast
3:34 AM 36.5 °F 36.3 °F 99% 30.18 in 4.0 mi Calm Calm - N/A   Scattered Clouds
3:54 AM 35.8 °F 35.4 °F 99% 30.17 in 4.0 mi Calm Calm - N/A   Mostly Cloudy
4:14 AM 36.1 °F 36.0 °F 99% 30.17 in 10.0 mi Calm Calm - N/A   Mostly Cloudy
4:34 AM 35.4 °F 35.2 °F 99% 30.17 in 7.0 mi Calm Calm - N/A   Scattered Clouds
4:54 AM 35.6 °F 35.6 °F 100% 30.17 in 5.0 mi Calm Calm - N/A   Mostly Cloudy
5:14 AM 35.1 °F 34.9 °F 99% 30.17 in 2.5 mi Calm Calm - N/A   Overcast
5:34 AM 35.1 °F 34.9 °F 99% 30.17 in 10.0 mi Calm Calm - N/A   Overcast
5:54 AM 35.1 °F 34.9 °F 99% 30.17 in 4.0 mi Calm Calm - N/A   Overcast
6:14 AM 35.4 °F 35.2 °F 99% 30.17 in 5.0 mi Calm Calm - N/A   Mostly Cloudy
6:34 AM 35.8 °F 35.6 °F 99% 30.17 in 10.0 mi Calm Calm - N/A   Overcast
6:54 AM 35.8 °F 35.6 °F 99% 30.17 in 4.0 mi Calm Calm - N/A   Mostly Cloudy
7:14 AM 37.4 °F 37.4 °F 100% 30.17 in 10.0 mi Calm Calm - N/A   Overcast
7:34 AM 38.3 °F 37.9 °F 99% 30.17 in 10.0 mi Calm Calm - N/A   Overcast
7:54 AM 38.3 °F 38.1 °F 99% 30.17 in 10.0 mi Calm Calm - N/A   Overcast
8:14 AM 39.9 °F 39.6 °F 99% 30.17 in 10.0 mi Calm Calm - N/A   Mostly Cloudy
8:34 AM 40.3 °F 40.1 °F 99% 30.17 in 10.0 mi Calm Calm - N/A   Mostly Cloudy
8:54 AM 43.3 °F 43.2 °F 99% 30.17 in 10.0 mi Calm Calm - N/A   Mostly Cloudy
9:14 AM 46.6 °F 46.6 °F 100% 30.18 in 10.0 mi Calm Calm - N/A   Mostly Cloudy
9:35 AM 50.0 °F 49.5 °F 98% 30.17 in 10.0 mi Calm Calm - N/A   Mostly Cloudy
9:54 AM 53.1 °F 51.6 °F 95% 30.18 in 10.0 mi Calm Calm - N/A   Scattered Clouds
10:14 AM 56.1 °F 49.5 °F 78% 30.18 in 10.0 mi NNW 3.5 mph - N/A   Clear
10:35 AM 57.2 °F 50.2 °F 77% 30.18 in 10.0 mi North 3.5 mph - N/A   Clear
10:54 AM 57.9 °F 49.1 °F 72% 30.18 in 10.0 mi North 4.6 mph - N/A   Clear
11:14 AM 59.0 °F 48.4 °F 68% 30.17 in 10.0 mi Calm Calm - N/A   Clear
11:35 AM 59.9 °F 47.7 °F 64% 30.17 in 10.0 mi Calm Calm - N/A   Scattered Clouds
11:54 AM 58.8 °F 48.4 °F 68% 30.17 in 10.0 mi Calm Calm - N/A   Mostly Cloudy
12:14 PM 59.5 °F 47.8 °F 65% 30.17 in 10.0 mi NW 8.1 mph - N/A   Mostly Cloudy
12:35 PM 62.1 °F 47.7 °F 59% 30.17 in 10.0 mi WSW 5.8 mph - N/A   Scattered Clouds
12:54 PM 63.1 °F 47.5 °F 57% 30.16 in 10.0 mi Calm Calm - N/A   Mostly Cloudy
1:14 PM 62.8 °F 46.0 °F 54% 30.16 in 10.0 mi NW 6.9 mph - N/A   Overcast
1:34 PM 61.3 °F 45.9 °F 57% 30.15 in 10.0 mi WNW 8.1 mph - N/A   Mostly Cloudy
1:54 PM 64.0 °F 45.5 °F 51% 30.14 in 10.0 mi Calm Calm - N/A   Scattered Clouds
2:14 PM 64.4 °F 45.7 °F 51% 30.13 in 10.0 mi WNW 8.1 mph - N/A   Mostly Cloudy
2:34 PM 63.7 °F 45.0 °F 51% 30.13 in 10.0 mi NW 8.1 mph - N/A   Scattered Clouds
2:54 PM 62.6 °F 44.6 °F 52% 30.12 in 10.0 mi WNW 8.1 mph - N/A   Scattered Clouds
3:14 PM 64.0 °F 45.3 °F 51% 30.12 in 10.0 mi WNW 6.9 mph - N/A   Scattered Clouds
3:34 PM 64.2 °F 44.8 °F 49% 30.12 in 10.0 mi NNW 9.2 mph - N/A   Scattered Clouds
3:54 PM 63.5 °F 44.1 °F 49% 30.12 in 10.0 mi NNW 9.2 mph - N/A   Mostly Cloudy
4:15 PM 63.5 °F 42.8 °F 47% 30.11 in 10.0 mi WNW 4.6 mph - N/A   Scattered Clouds
4:34 PM 64.0 °F 43.2 °F 47% 30.11 in 10.0 mi WNW 8.1 mph - N/A   Clear
4:54 PM 63.5 °F 41.9 °F 45% 30.11 in 10.0 mi NNW 8.1 mph - N/A   Clear
5:15 PM 63.5 °F 42.3 °F 46% 30.10 in 10.0 mi WNW 3.5 mph - N/A   Clear
5:34 PM 63.5 °F 41.4 °F 44% 30.10 in 10.0 mi NW 5.8 mph - N/A   Clear
5:54 PM 62.6 °F 42.3 °F 47% 30.10 in 10.0 mi Calm Calm - N/A   Clear
6:15 PM 61.7 °F 42.8 °F 50% 30.10 in 10.0 mi NW 3.5 mph - N/A   Clear
6:34 PM 61.5 °F 42.6 °F 50% 30.10 in 10.0 mi Calm Calm - N/A   Clear
6:54 PM 58.6 °F 44.4 °F 59% 30.10 in 10.0 mi ESE 5.8 mph - N/A   Clear
7:15 PM 55.4 °F 47.5 °F 75% 30.10 in 10.0 mi East 3.5 mph - N/A   Clear
7:34 PM 54.5 °F 47.8 °F 78% 30.10 in 10.0 mi East 3.5 mph - N/A   Clear
7:54 PM 53.2 °F 47.5 °F 81% 30.10 in 10.0 mi Calm Calm - N/A   Clear
8:15 PM 52.2 °F 47.3 °F 83% 30.10 in 10.0 mi Calm Calm - N/A   Clear
8:34 PM 48.4 °F 43.7 °F 84% 30.10 in 10.0 mi Calm Calm - N/A   Clear
8:54 PM 46.8 °F 43.7 °F 89% 30.10 in 10.0 mi Calm Calm - N/A   Clear
9:15 PM 45.1 °F 42.8 °F 91% 30.10 in 10.0 mi Calm Calm - N/A   Clear
9:34 PM 44.6 °F 42.6 °F 93% 30.09 in 10.0 mi Calm Calm - N/A   Clear
9:55 PM 43.9 °F 42.1 °F 93% 30.09 in 10.0 mi Calm Calm - N/A   Clear
10:15 PM 41.9 °F 40.6 °F 95% 30.10 in 10.0 mi Calm Calm - N/A   Scattered Clouds
10:34 PM 42.3 °F 41.2 °F 96% 30.09 in 1.2 mi Calm Calm - N/A   Scattered Clouds
10:55 PM 41.0 °F 40.3 °F 97% 30.09 in 1.8 mi Calm Calm - N/A   Scattered Clouds
11:15 PM 40.5 °F 39.6 °F 97% 30.10 in 10.0 mi Calm Calm - N/A   Scattered Clouds
11:34 PM 39.9 °F 39.2 °F 97% 30.10 in 5.0 mi Calm Calm - N/A   Clear
11:54 PM 40.5 °F 39.9 °F 98% 30.10 in 5.0 mi Calm Calm - N/A   Scattered Clouds